Flag for U.S.A. Weather past 2 weeks in San Bernardino, California, U.S.A.

Now
65 °F

Overcast.


Feels Like: 65 °F
Forecast: 62 / 89 °F
Wind: 5 mph from Southwest

Location: Riverside Municipal Airport

Current Time: Jul 6, 2015 at 4:50:08 AM

Latest Report: Jul 6, 2015 at 3:53 AM


Visibility: 10 mi

Pressure: 29.97 "Hg

Humidity: 81%

Dew point: 59 °F

Location of San BernardinoLocation

Historic Weather in San Bernardino — Graph

°F

San Bernardino temperature yesterday

Maximum temperature yesterday: 86 °F (at 3:53 PM)
Minimum temperature yesterday: 63 °F (at 3:53 AM)
Average temperature yesterday: 71 °F

Past Weeks' High & Low Weather Summary

 TemperatureHumidityPressure
High101 °F (Jun 28, 3:53 PM)87% (Jul 5, 3:53 AM)29.99 "Hg (Jul 5, 3:53 AM)
Low63 °F (Jun 25, 5:53 AM)19% (Jun 28, 3:53 PM)29.78 "Hg (Jul 3, 5:53 PM)
Average79 °F49%29.87 "Hg
* Reported Jun 21 2:53 AM — Jul 6 2:53 AM, San Bernardino, Weather by CustomWeather, © 2015

Note: Actual official high and low records may vary slightly from our data, if they occured in-between our weather recording intervals... More about our weather records

Advertising

San Bernardino weather history for previous 24 hours

 ConditionsComfort  
Time TempWeatherWind HumidityBarometerVisibility
2:53 AM
Mon, Jul 6
65 °FOvercast.5 mph81%29.97 "Hg10 mi
1:53 AM65 °FOvercast.6 mph81%29.98 "Hg10 mi
12:53 AM65 °FOvercast.5 mph81%29.97 "Hg10 mi
11:53 PM
Sun, Jul 5
64 °FPassing clouds.6 mph84%29.98 "Hg10 mi
10:53 PM65 °FClear.5 mph81%29.99 "Hg10 mi
9:53 PM66 °FClear.7 mph78%29.97 "Hg10 mi
8:53 PM69 °FSunny.7 mph70%29.93 "Hg10 mi
7:53 PM73 °FSunny.9 mph62%29.91 "Hg10 mi
6:53 PM77 °FSunny.12 mph54%29.89 "Hg10 mi
5:53 PM80 °FSunny.10 mph49%29.87 "Hg10 mi
4:53 PM82 °FSunny.16 mph46%29.87 "Hg10 mi
3:53 PM86 °FSunny.8 mph39%29.87 "Hg10 mi
2:53 PM83 °FSunny.3 mph44%29.88 "Hg10 mi
1:53 PM81 °FSunny.8 mph47%29.91 "Hg10 mi
12:53 PM78 °FSunny.N/A54%29.93 "Hg10 mi
11:53 AM75 °FSunny.6 mph60%29.95 "Hg9 mi
10:53 AM71 °FScattered clouds.3 mph68%29.95 "Hg6 mi
10:00 AM68 °FOvercast.No wind73%29.99 "Hg4 mi
8:53 AM67 °FLow clouds.5 mph76%29.95 "Hg3 mi
7:53 AM65 °FLow clouds.No wind81%29.94 "Hg3 mi
6:53 AM64 °FLow clouds.5 mph84%29.93 "Hg4 mi
5:53 AM64 °FLow clouds.No wind84%29.91 "Hg5 mi
4:53 AM63 °FOvercast.5 mph87%29.90 "Hg7 mi
Weather by CustomWeather, © 2015

See weather overviewHow to use our weather pages